Location: Newark
(45.5000°N, 11.4167°E)
Time: 03:13:19
(UTC+00:00)

Vanguard 2 - Pass Details

Date: 28 August 2019
Orbit: 554 x 2937 km, 32.9° (Epoch: 19 September)

Event Time Altitude Azimuth Distance (km) Brightness Sun altitude
Rises 13:16:34 0° 253° (WSW) 3,376 11.4 45.8°
Reaches altitude 10° 13:19:00 10° 241° (WSW) 2,672 11.3 45.5°
Maximum altitude 13:24:31 29° 183° (S) 2,120 10.8 44.8°
Drops below altitude 10° 13:32:46 10° 129° (SE) 4,081 11.2 43.7°
Sets 13:37:30 0° 120° (ESE) 5,514 11.7 43.1°
